FW8007 Weather Reports


time (UTC)temp
F
wind
direction
speed
knots
gust
knots
rain 1hr
in
rain 24hr
in
rain mn
in
humidity
%
barometer
mb
20260503184551 57 0 0.0 1.7 0.00 0.00 0.00 74 1012.9
20260503184020 58 0 0.0 1.7 0.00 0.00 0.00 75 1012.7
20260503183521 58 0 0.0 1.7 0.00 0.00 0.00 74 1012.8
20260503183057 58 0 0.0 1.7 0.00 0.00 0.00 74 1012.7
20260503182518 58 0 0.0 1.7 0.00 0.00 0.00 74 1012.6
20260503182018 58 325 0.0 1.7 0.00 0.00 0.00 73 1012.6
20260503181537 58 0 0.0 1.7 0.00 0.00 0.00 72 1012.7
20260503181019 59 0 0.0 1.7 0.00 0.00 0.00 72 1012.6
20260503180521 59 262 0.0 2.6 0.00 0.00 0.00 72 1012.5
20260503180043 59 227 0.0 5.2 0.00 0.00 0.00 72 1012.4
20260503175522 59 258 0.0 5.2 0.00 0.00 0.00 71 1012.5
20260503175018 59 0 0.9 5.2 0.00 0.00 0.00 71 1012.3
20260503174536 59 284 0.9 3.5 0.00 0.00 0.00 71 1012.5
20260503174020 60 302 0.9 3.5 0.00 0.00 0.00 70 1012.5
20260503173520 60 0 0.0 3.5 0.00 0.00 0.00 70 1012.5
20260503173106 60 0 0.0 5.2 0.00 0.00 0.00 70 1012.5
20260503172518 60 249 1.7 5.2 0.00 0.00 0.00 69 1012.7
20260503172018 60 271 0.9 5.2 0.00 0.00 0.00 68 1012.5
20260503171541 60 248 1.7 8.7 0.00 0.00 0.00 67 1012.6
20260503171019 61 0 1.7 8.7 0.00 0.00 0.00 66 1012.7
20260503170520 61 280 2.6 8.7 0.00 0.00 0.00 64 1012.8
20260503150518 67 244 2.6 7.8 0.00 0.00 0.00 48 1012.1
20260503131020 68 129 1.7 7.8 0.00 0.00 0.00 42 1012.4
20260503130519 67 271 2.6 4.3 0.00 0.00 0.00 43 1012.7
20260503110519 71 136 4.3 14.8 0.00 0.00 0.00 40 1012.8
20260503081539 66 205 1.7 7.8 0.00 0.00 0.00 46 1013.6
20260503081019 66 124 1.7 7.8 0.00 0.00 0.00 45 1013.7
20260503080518 64 271 1.7 7.8 0.00 0.00 0.00 49 1013.9
20260503072517 63 155 2.6 7.8 0.00 0.00 0.00 44 1013.5
20260503072017 63 190 0.9 6.1 0.00 0.00 0.00 46 1013.5
20260503071539 62 263 1.7 6.1 0.00 0.00 0.00 45 1013.5
20260503071018 62 215 1.7 8.7 0.00 0.00 0.00 46 1013.4
20260503070518 62 203 2.6 8.7 0.00 0.00 0.00 45 1013.3
20260503055018 61 184 1.7 6.1 0.00 0.00 0.00 49 1013.1
20260503054538 60 169 0.9 5.2 0.00 0.00 0.00 50 1013.1
20260503054021 60 201 0.9 5.2 0.00 0.00 0.00 49 1013.1
20260503053517 60 163 1.7 5.2 0.00 0.00 0.00 49 1012.8
20260503053037 60 271 1.7 7.0 0.00 0.00 0.00 49 1013.0
20260503052521 60 236 0.9 7.0 0.00 0.00 0.00 48 1012.9
20260503052017 60 271 1.7 7.0 0.00 0.00 0.00 48 1012.9
20260503051533 60 271 1.7 10.4 0.00 0.00 0.00 50 1012.8
20260503051019 60 271 1.7 10.4 0.00 0.00 0.00 51 1012.8
20260503050519 59 271 2.6 7.8 0.00 0.00 0.00 53 1012.9
20260503050038 59 286 1.7 5.2 0.00 0.00 0.00 55 1012.9
20260503045517 58 165 1.7 6.1 0.00 0.00 0.00 57 1012.9
20260503045018 57 228 0.9 6.1 0.00 0.00 0.00 61 1012.9
20260503044538 55 155 1.7 6.1 0.00 0.00 0.00 65 1013.2
20260503044017 53 209 0.9 5.2 0.00 0.00 0.00 70 1013.1
20260503043517 53 0 0.0 1.7 0.00 0.00 0.00 70 1013.0
20260503043041 53 0 0.0 0.9 0.00 0.00 0.00 70 1013.0
20260503042517 53 0 0.0 0.9 0.00 0.00 0.00 69 1013.0
20260503042019 53 0 0.0 1.7 0.00 0.00 0.00 68 1012.9
20260503041537 53 0 0.0 1.7 0.00 0.00 0.00 67 1012.9
20260503041022 53 330 0.0 0.9 0.00 0.00 0.00 67 1012.9
20260503040517 53 0 0.0 0.9 0.00 0.00 0.00 66 1012.9
20260503040046 54 0 0.0 0.9 0.00 0.00 0.00 65 1013.1
20260503035517 54 0 0.0 0.9 0.00 0.00 0.00 64 1013.1
20260503035017 55 0 0.0 0.0 0.00 0.00 0.00 62 1013.1
20260503034549 56 0 0.0 1.7 0.00 0.00 0.00 60 1013.1
20260503034022 56 0 0.0 1.7 0.00 0.00 0.00 59 1013.1
20260503033516 57 0 0.0 3.5 0.00 0.00 0.00 58 1013.0
20260503033043 57 0 0.0 3.5 0.00 0.00 0.00 58 1013.1
20260503032518 57 0 0.0 2.6 0.00 0.00 0.00 57 1013.4
20260503032017 57 0 0.0 2.6 0.00 0.00 0.00 57 1013.3
20260503031541 57 0 0.0 1.7 0.00 0.00 0.00 57 1013.3
20260503031018 58 0 0.0 1.7 0.00 0.00 0.00 55 1013.2
20260503030518 58 0 0.0 1.7 0.00 0.00 0.00 55 1013.2
20260503030047 59 0 0.0 2.6 0.00 0.00 0.00 53 1013.2
20260503025517 59 175 0.0 3.5 0.00 0.00 0.00 53 1013.4
20260503025018 59 253 0.0 3.5 0.00 0.00 0.00 53 1013.3
20260503024536 59 143 0.9 3.5 0.00 0.00 0.00 52 1013.3
20260503024017 59 212 0.9 3.5 0.00 0.00 0.00 52 1013.4
20260503023518 59 220 0.9 7.0 0.00 0.00 0.00 52 1013.4
20260503023034 59 271 0.9 7.0 0.00 0.00 0.00 52 1013.5
20260503022517 59 164 0.9 7.0 0.00 0.00 0.00 52 1013.5
20260503022019 58 240 0.9 3.5 0.00 0.00 0.00 53 1013.5
20260503021543 58 260 0.0 2.6 0.00 0.00 0.00 53 1013.6
20260503021019 58 0 0.9 7.0 0.00 0.00 0.00 53 1013.6
20260503020519 58 271 0.9 7.0 0.00 0.00 0.00 53 1013.6
20260503020041 58 0 0.0 4.3 0.00 0.00 0.00 53 1013.5
20260503015518 58 271 0.9 2.6 0.00 0.00 0.00 52 1013.6
20260503015017 59 271 0.9 2.6 0.00 0.00 0.00 50 1013.5
20260503014540 59 271 0.9 2.6 0.00 0.00 0.00 50 1013.6
20260503014017 60 0 0.0 4.3 0.00 0.00 0.00 49 1013.7
20260503013517 60 0 0.0 4.3 0.00 0.00 0.00 49 1013.7
20260503013037 60 271 0.9 4.3 0.00 0.00 0.00 49 1013.7
20260503012518 60 271 0.9 4.3 0.00 0.00 0.00 49 1013.7
20260503012023 60 271 0.9 5.2 0.00 0.00 0.00 50 1013.7
20260503011537 60 0 0.9 5.2 0.00 0.00 0.00 50 1013.7
20260503011017 59 271 1.7 5.2 0.00 0.00 0.00 50 1013.7
20260503010518 59 271 0.9 4.3 0.00 0.00 0.00 51 1013.9
20260503010041 58 271 1.7 4.3 0.00 0.00 0.00 52 1013.9
20260503005521 58 0 0.9 3.5 0.00 0.00 0.00 54 1013.9
20260503005021 58 271 0.9 2.6 0.00 0.00 0.00 55 1014.0
20260503004538 58 271 0.0 2.6 0.00 0.00 0.00 55 1014.0
20260503004025 58 271 0.9 2.6 0.00 0.00 0.00 54 1014.1
20260503003518 57 271 0.0 2.6 0.00 0.00 0.00 56 1014.1
20260503003038 57 0 0.0 2.6 0.00 0.00 0.00 57 1014.1
20260503002518 56 271 0.0 2.6 0.00 0.00 0.00 59 1014.2
20260503002018 57 271 0.0 2.6 0.00 0.00 0.00 60 1014.2
20260503001538 57 0 0.0 1.7 0.00 0.00 0.00 59 1014.3
20260503001020 58 0 0.0 2.6 0.00 0.00 0.00 58 1014.3
20260503000519 58 0 0.0 3.5 0.00 0.00 0.00 55 1014.4
20260503000036 58 0 0.0 3.5 0.00 0.00 0.00 57 1014.4
20260502235519 59 271 0.0 3.5 0.00 0.00 0.00 57 1014.5
20260502235018 59 271 0.0 2.6 0.00 0.00 0.00 56 1014.6
20260502234536 59 0 0.0 2.6 0.00 0.00 0.00 55 1014.7
20260502234018 60 0 0.0 1.7 0.00 0.00 0.00 56 1014.7
20260502233520 60 262 0.0 6.1 0.00 0.00 0.00 56 1014.9
20260502233043 61 234 0.0 6.1 0.00 0.00 0.00 55 1014.9
20260502232518 60 211 0.9 6.1 0.00 0.00 0.00 55 1014.9
20260502232021 60 247 0.0 3.5 0.00 0.00 0.00 56 1014.8
20260502231538 61 197 0.0 3.5 0.00 0.00 0.00 57 1014.7
20260502231021 61 205 0.9 3.5 0.00 0.00 0.00 57 1014.9
20260502230519 61 108 0.9 2.6 0.00 0.00 0.00 58 1014.9
20260502230036 61 138 0.0 4.3 0.00 0.00 0.00 60 1014.9
20260502225518 61 271 0.9 4.3 0.00 0.00 0.00 60 1015.1
20260502225020 60 137 0.9 2.6 0.00 0.00 0.00 61 1015.0
20260502224541 60 190 0.0 2.6 0.00 0.00 0.00 62 1014.9
20260502224018 60 217 0.0 2.6 0.00 0.00 0.00 62 1015.0
20260502223518 60 0 0.0 1.7 0.00 0.00 0.00 61 1015.0
20260502223037 61 0 0.0 1.7 0.00 0.00 0.00 60 1015.0
20260502222518 61 0 0.0 1.7 0.00 0.00 0.00 60 1014.9
20260502222018 61 0 0.0 1.7 0.00 0.00 0.00 60 1015.0
20260502221535 62 192 0.0 1.7 0.00 0.00 0.00 59 1015.0
20260502221018 62 130 0.0 3.5 0.00 0.00 0.00 59 1014.9
20260502220552 62 0 0.9 3.5 0.00 0.00 0.00 59 1014.9
20260502220043 62 0 0.0 3.5 0.00 0.00 0.00 59 1014.9
20260502215519 62 0 0.0 3.5 0.00 0.00 0.00 59 1015.0
20260502215018 62 139 0.0 3.5 0.00 0.00 0.00 59 1015.1
20260502214545 62 0 0.0 2.6 0.00 0.00 0.00 59 1015.1
20260502214027 62 0 0.0 3.5 0.00 0.00 0.00 59 1015.2
20260502213530 62 168 0.0 3.5 0.00 0.00 0.00 59 1015.2
20260502213037 62 137 0.0 3.5 0.00 0.00 0.00 59 1015.3
20260502212519 62 142 0.9 3.5 0.00 0.00 0.00 59 1015.3
20260502212020 62 143 0.9 3.5 0.00 0.00 0.00 60 1015.4
20260502211551 61 126 0.9 2.6 0.00 0.00 0.00 61 1015.4
20260502211107 61 0 0.0 1.7 0.00 0.00 0.00 61 1015.6
20260502210528 62 0 0.0 1.7 0.00 0.00 0.00 60 1015.5
20260502210036 62 0 0.0 2.6 0.00 0.00 0.00 60 1015.5
20260502205517 62 124 0.0 2.6 0.00 0.00 0.00 59 1015.5
20260502205017 63 113 0.9 2.6 0.00 0.00 0.00 59 1015.5
20260502204536 63 155 0.0 1.7 0.00 0.00 0.00 59 1015.7
20260502204017 63 0 0.0 1.7 0.00 0.00 0.00 59 1015.6
20260502203516 63 0 0.0 2.6 0.00 0.00 0.00 58 1015.7
20260502203034 63 0 0.0 3.5 0.00 0.00 0.00 58 1015.7
20260502202517 63 161 0.0 3.5 0.00 0.00 0.00 58 1015.7
20260502202018 63 203 0.0 3.5 0.00 0.00 0.00 59 1015.7
20260502201538 62 127 0.0 2.6 0.00 0.00 0.00 59 1015.6
20260502201017 62 0 0.0 0.9 0.00 0.00 0.00 59 1015.7
20260502200525 62 0 0.0 1.7 0.00 0.00 0.00 59 1015.7
20260502200038 62 0 0.0 1.7 0.00 0.00 0.00 59 1015.9
20260502195518 62 143 0.0 1.7 0.00 0.00 0.00 59 1015.7
20260502195020 63 0 0.0 1.7 0.00 0.00 0.00 58 1015.7
20260502194538 63 0 0.0 1.7 0.00 0.00 0.00 58 1015.7
20260502194020 63 0 0.0 1.7 0.00 0.00 0.00 57 1015.8
20260502193518 64 0 0.0 1.7 0.00 0.00 0.00 57 1015.6
20260502193043 64 0 0.0 1.7 0.00 0.00 0.00 55 1015.6
20260502192525 65 0 0.0 1.7 0.00 0.00 0.00 55 1015.6
20260502192018 65 180 0.0 1.7 0.00 0.00 0.00 54 1015.7
20260502191540 65 0 0.0 1.7 0.00 0.00 0.00 53 1015.7
20260502191026 66 165 0.0 3.5 0.00 0.00 0.00 53 1015.7
20260502190521 66 0 0.0 4.3 0.00 0.00 0.00 53 1015.7
20260502190039 65 205 0.0 4.3 0.00 0.00 0.00 54 1015.9
20260502185519 65 178 0.9 4.3 0.00 0.00 0.00 54 1015.9
20260502185020 65 0 0.0 0.9 0.00 0.00 0.00 54 1015.8